Vancouver, British Columbia

4:49 PM PDT on July 25, 2017 (GMT -0700)
Vancouver International Airport

Weather History for CYVR - January, 2014

Change the Weather History Date:

Monday, January 27, 2014

  Actual Average Record
Temperature  
Mean Temperature 37 °F -  
Max Temperature 41 °F 46 °F 54 °F (2016)
Min Temperature 33 °F 35 °F 19 °F (1997)
Degree Days  
Heating Degree Days 28    
Moisture  
Dew Point 37 °F    
Average Humidity 98    
Maximum Humidity 100    
Minimum Humidity 93    
Precipitation  
Precipitation 0.00 in 0.17 in - ()
Sea Level Pressure  
Sea Level Pressure 30.20 in    
Wind  
Wind Speed 3 mph ()    
Max Wind Speed 6 mph    
Max Gust Speed -    
Visibility 2.7 miles    
Events Fog    
Averages and records for this station are not official NWS values.
T = Trace of Precipitation, MM = Missing Value Source: Averaged Metar Reports

Daily Weather History Graph

Daily Weather History Graph

Search for Another Location

Airport or City:

Trip Planner

Search our weather history database for the weather conditions in past years. The results will help you decide how hot, cold, wet, or windy it might be!

Date:

Astronomy

Jan. 27, 2014 Rise Set
Actual Time 7:50 AM PST 5:01 PM PST
Civil Twilight 7:15 AM PST 5:36 PM PST
Nautical Twilight 6:36 AM PST 6:14 PM PST
Astronomical Twilight 5:59 AM PST 6:52 PM PST
Moon 4:41 AM PST (1/27) 1:48 PM PST (1/27)
Length of Visible Light 10h 20m
Length of Day
9h 11m
Waning Crescent, 14% of the Moon is Illuminated
Jan 27
Waning Crescent
Jan 30
New
Feb 6
First Quarter
Feb 14
Full
Feb 22
Last Quarter

Hourly Weather History & Observations

Time (PST) Temp. Windchill Dew Point Humidity Pressure Visibility Wind Dir Wind Speed Gust Speed Precip Events Conditions
12:00 AM 35.6 °F - 35.6 °F 100% 30.14 in 0.1 mi Calm Calm - N/A Fog Fog
1:00 AM 35.6 °F 32.8 °F 35.6 °F 100% 30.15 in 0.1 mi East 3.5 mph - N/A Fog Fog
2:00 AM 35.6 °F 32.8 °F 33.8 °F 93% 30.15 in 0.1 mi NNE 3.5 mph - N/A Fog Fog
2:56 AM 33.8 °F 28.6 °F 33.8 °F 100% 30.17 in 0.4 mi SSW 5.8 mph - N/A Fog Fog
3:00 AM 33.8 °F 29.6 °F 33.8 °F 100% 30.17 in 0.4 mi SSW 4.6 mph - N/A Fog Fog
4:00 AM 35 °F - 34 °F 96% 30.17 in 0 mi NE 2.3 mph - - Fog Heavy Fog
4:00 AM 33.8 °F - 33.8 °F 100% 30.17 in 0.4 mi Calm Calm - N/A Fog Fog
4:12 AM 35.6 °F 32.8 °F 33.8 °F 93% 30.17 in 0.1 mi NE 3.5 mph - N/A Fog Fog
4:44 AM 33.8 °F 29.6 °F 33.8 °F 100% 30.17 in 0.5 mi NE 4.6 mph - N/A Fog Fog
5:00 AM 33.8 °F 29.6 °F 33.8 °F 100% 30.17 in 3.0 mi NNE 4.6 mph - N/A   Overcast
6:00 AM 35.6 °F 32.8 °F 33.8 °F 93% 30.17 in 3.0 mi NNE 3.5 mph - N/A   Overcast
6:11 AM 35.6 °F - 33.8 °F 93% 30.18 in 0.5 mi Calm Calm - N/A Fog Fog
6:15 AM 35.6 °F - 35.6 °F 100% 30.18 in 0.4 mi Calm Calm - N/A Fog Fog
7:00 AM 35.6 °F - 35.6 °F 100% 30.18 in 0.2 mi Variable 2.3 mph - N/A Fog Fog
7:40 AM 35.6 °F 32.8 °F 35.6 °F 100% 30.17 in 0.1 mi East 3.5 mph - N/A Fog Fog
7:51 AM 35.6 °F - 35.6 °F 100% 30.18 in 0.4 mi ENE 2.3 mph - N/A Fog Fog
8:00 AM 35.6 °F - 33.8 °F 93% 30.19 in 0.4 mi ESE 2.3 mph - N/A Fog Fog
9:00 AM 33.8 °F 30.8 °F 33.8 °F 100% 30.20 in 0.2 mi East 3.5 mph - N/A Fog Fog
9:36 AM 35.6 °F - 33.8 °F 93% 30.21 in 0.5 mi Variable 2.3 mph - N/A Fog Fog
9:43 AM 35.6 °F 32.8 °F 35.6 °F 100% 30.21 in 0.8 mi North 3.5 mph - N/A   Overcast
9:54 AM 35.6 °F 32.8 °F 35.6 °F 100% 30.21 in 0.8 mi North 3.5 mph - N/A   Mostly Cloudy
10:00 AM 35 °F - 35 °F 100% 30.22 in 1 mi North 2.3 mph - - Fog Light Fog
10:00 AM 35.6 °F - 35.6 °F 100% 30.22 in 0.8 mi NW 2.3 mph - N/A   Mostly Cloudy
10:06 AM 35.6 °F 32.8 °F 35.6 °F 100% 30.22 in 1.0 mi WSW 3.5 mph - N/A   Mostly Cloudy
10:15 AM 35.6 °F - 35.6 °F 100% 30.22 in 0.8 mi West 2.3 mph - N/A   Overcast
10:23 AM 35.6 °F - 35.6 °F 100% 30.22 in 0.5 mi Variable 2.3 mph - N/A Fog Fog
11:00 AM 37.4 °F 34.9 °F 37.4 °F 100% 30.23 in 0.4 mi West 3.5 mph - N/A Fog Fog
12:00 PM 37.4 °F 33.8 °F 37.4 °F 100% 30.22 in 0.5 mi NNE 4.6 mph - N/A Fog Fog
12:20 PM 37.4 °F - 37.4 °F 100% 30.22 in 0.8 mi NNE 2.3 mph - N/A   Mist
12:25 PM 39.2 °F 35.9 °F 39.2 °F 100% 30.22 in 1.5 mi Variable 4.6 mph - N/A   Mostly Cloudy
12:33 PM 39.2 °F 35.9 °F 37.4 °F 93% 30.23 in 3.0 mi SW 4.6 mph - N/A Fog Patches of Fog
12:41 PM 39.2 °F 35.0 °F 37.4 °F 93% 30.23 in 0.8 mi SW 5.8 mph - N/A   Overcast
12:46 PM 37.4 °F 32.8 °F 37.4 °F 100% 30.23 in 0.5 mi SW 5.8 mph - N/A Fog Fog
1:00 PM 37.4 °F - 37.4 °F 100% 30.23 in 0.2 mi SW 2.3 mph - N/A Fog Fog
1:52 PM 39.2 °F - 39.2 °F 100% 30.21 in 0.8 mi Calm Calm - N/A   Overcast
2:00 PM 39.2 °F - 39.2 °F 100% 30.21 in 1.5 mi Calm Calm - N/A Fog Patches of Fog
2:33 PM 41.0 °F 38.0 °F 41.0 °F 100% 30.21 in 3.0 mi WSW 4.6 mph - N/A Fog Patches of Fog
3:00 PM 39.2 °F 35.9 °F 39.2 °F 100% 30.21 in 2.0 mi West 4.6 mph - N/A Fog Patches of Fog
3:10 PM 39.2 °F 35.9 °F 39.2 °F 100% 30.21 in 0.8 mi WNW 4.6 mph - N/A Fog Patches of Fog
3:20 PM 39.2 °F - 39.2 °F 100% 30.21 in 0.5 mi West 2.3 mph - N/A Fog Fog
3:33 PM 39.2 °F 37.0 °F 39.2 °F 100% 30.20 in 0.2 mi West 3.5 mph - N/A Fog Fog
4:00 PM 38 °F - 38 °F 100% 30.21 in 0 mi West 3.5 mph - - Fog Partial Fog
4:00 PM 39.2 °F 37.0 °F 37.4 °F 93% 30.20 in 0.2 mi WNW 3.5 mph - N/A Fog Fog
4:16 PM 39.2 °F 35.9 °F 37.4 °F 93% 30.20 in 0.8 mi NW 4.6 mph - N/A   Mostly Cloudy
4:31 PM 39.2 °F 37.0 °F 37.4 °F 93% 30.20 in 2.0 mi NW 3.5 mph - N/A   Mostly Cloudy
5:00 PM 37.4 °F 32.8 °F 37.4 °F 100% 30.19 in 1.5 mi NW 5.8 mph - N/A   Mostly Cloudy
5:14 PM 39.2 °F 35.9 °F 37.4 °F 93% 30.18 in 3.0 mi North 4.6 mph - N/A Fog Patches of Fog
6:00 PM 37.4 °F 32.8 °F 37.4 °F 100% 30.19 in 15.0 mi West 5.8 mph - N/A   Mostly Cloudy
7:00 PM 41.0 °F 37.1 °F 39.2 °F 93% 30.19 in 15.0 mi SW 5.8 mph - N/A   Overcast
8:00 PM 39.2 °F - 39.2 °F 100% 30.20 in 15.0 mi Calm Calm - N/A   Overcast
9:00 PM 39.2 °F - 39.2 °F 100% 30.21 in 15.0 mi East 2.3 mph - N/A   Overcast
10:00 PM 40 °F - 40 °F 100% 30.21 in 15 mi ENE 4.6 mph - -   Overcast
10:00 PM 41.0 °F 38.0 °F 39.2 °F 93% 30.21 in 15.0 mi ENE 4.6 mph - N/A   Overcast
11:00 PM 41.0 °F 39.0 °F 41.0 °F 100% 30.22 in 15.0 mi SSE 3.5 mph - N/A   Overcast